H1 CPF 2 NER 2024 4 22 9 113 01 glonass133 H2 1403201 9133 40001 2024 4 22 0 0 0 2024 4 25 23 45 0 900 1 1 0 0 0 1 H9 10 0 60422 0.00000 0 -10153752.423 20364190.903 -11553411.621 10 0 60422 900.00000 0 -10773992.458 21460730.684 -8639827.206 10 0 60422 1800.00000 0 -11104401.549 22295232.316 -5558642.495 10 0 60422 2700.00000 0 -11177611.611 22819105.100 -2369623.295 10 0 60422 3600.00000 0 -11035895.527 22993370.689 865367.940 10 0 60422 4500.00000 0 -10729152.119 22790389.052 4083569.105 10 0 60422 5400.00000 0 -10312578.899 22195128.154 7222533.654 10 0 60422 6300.00000 0 -9844131.087 21205923.370 10221340.468 10 0 60422 7200.00000 0 -9381874.372 19834694.005 13021774.808 10 0 60422 8100.00000 0 -8981343.397 18106606.912 15569457.432 10 0 60422 9000.00000 0 -8693017.665 16059200.317 17814899.947 10 0 60422 9900.00000 0 -8560021.685 13741003.463 19714465.933 10 0 60422 10800.00000 0 -8616146.696 11209708.729 21231219.295 10 0 60422 11700.00000 0 -8884277.879 8529971.460 22335643.488 10 0 60422 12600.00000 0 -9375293.935 5770928.270 23006217.749 10 0 60422 13500.00000 0 -10087486.164 3003536.233 23229839.168 10 0 60422 14400.00000 0 -11006522.448 297842.863 23002082.338 10 0 60422 15300.00000 0 -12105958.704 -2279700.281 22327291.278 10 0 60422 16200.00000 0 -13348277.428 -4668769.262 21218501.480 10 0 60422 17100.00000 0 -14686410.766 -6817439.920 19697193.027 10 0 60422 18000.00000 0 -16065685.043 -8684106.362 17792878.964 10 0 60422 18900.00000 0 -17426105.728 -10238966.281 15542536.268 10 0 60422 19800.00000 0 -18704887.207 -11465011.573 12989889.851 10 0 60422 20700.00000 0 -19839120.996 -12358483.382 10184563.125 10 0 60422 21600.00000 0 -20768469.837 -12928773.192 7181111.387 10 0 60422 22500.00000 0 -21437773.666 -13197774.976 4037956.909 10 0 60422 23400.00000 0 -21799456.843 -13198716.672 816246.814 10 0 60422 24300.00000 0 -21815634.258 -12974521.396 -2421343.395 10 0 60422 25200.00000 0 -21459826.628 -12575768.854 -5611836.586 10 0 60422 26100.00000 0 -20718211.808 -12058344.413 -8693186.150 10 0 60422 27000.00000 0 -19590358.747 -11480876.540 -11605488.689 10 0 60422 27900.00000 0 -18089412.713 -10902072.139 -14292152.878 10 0 60422 28800.00000 0 -16241723.755 -10378063.457 -16701001.157 10 0 60422 29700.00000 0 -14085933.907 -9959879.400 -18785282.625 10 0 60422 30600.00000 0 -11671561.413 -9691148.429 -20504577.552 10 0 60422 31500.00000 0 -9057141.260 -9606130.101 -21825576.340 10 0 60422 32400.00000 0 -6307999.633 -9728158.033 -22722718.530 10 0 60422 33300.00000 0 -3493754.853 -10068559.516 -23178680.316 10 0 60422 34200.00000 0 -685648.422 -10626096.806 -23184702.048 10 0 60422 35100.00000 0 2046183.533 -11386953.134 -22740750.265 10 0 60422 36000.00000 0 4635386.072 -12325263.730 -21855511.844 10 0 60422 36900.00000 0 7021898.485 -13404169.434 -20546220.893 10 0 60422 37800.00000 0 9154201.612 -14577348.730 -18838321.987 10 0 60422 38700.00000 0 10991207.503 -15790964.211 -16764976.237 10 0 60422 39600.00000 0 12503714.314 -16985942.155 -14366419.548 10 0 60422 40500.00000 0 13675367.322 -18100490.046 -11689185.062 10 0 60422 41400.00000 0 14503087.355 -19072746.795 -8785204.353 10 0 60422 42300.00000 0 14996949.950 -19843454.715 -5710804.310 10 0 60422 43200.00000 0 15179521.376 -20358541.207 -2525618.680 10 0 60422 44100.00000 0 15084680.263 -20571501.661 708564.988 10 0 60422 45000.00000 0 14755975.017 -20445483.157 3929000.818 10 0 60422 45900.00000 0 14244586.674 -19954980.928 7073199.444 10 0 60422 46800.00000 0 13606983.339 -19087075.589 10080138.650 10 0 60422 47700.00000 0 12902365.363 -17842158.287 12891446.272 10 0 60422 48600.00000 0 12190009.132 -16234112.292 15452532.350 10 0 60422 49500.00000 0 11526621.622 -14289942.235 17713648.580 10 0 60422 50400.00000 0 10963817.364 -12048865.283 19630854.493 10 0 60422 51300.00000 0 10545824.329 -9560900.963 21166871.717 10 0 60422 52200.00000 0 10307515.580 -6885017.227 22291809.848 10 0 60422 53100.00000 0 10272849.882 -4086908.862 22983749.926 10 0 60422 54000.00000 0 10453787.344 -1236499.614 23229174.216 10 0 60422 54900.00000 0 10849726.263 1594729.093 23023233.882 10 0 60422 55800.00000 0 11447485.540 4336472.585 22369849.103 10 0 60422 56700.00000 0 12221834.151 6922287.607 21281639.322 10 0 60422 57600.00000 0 13136546.211 9292116.185 19779684.440 10 0 60422 58500.00000 0 14145937.935 11394544.103 17893120.966 10 0 60422 59400.00000 0 15196822.436 13188700.329 15658580.334 10 0 60422 60300.00000 0 16230800.405 14645718.523 13119479.684 10 0 60422 61200.00000 0 17186790.260 15749699.956 10325178.473 10 0 60422 62100.00000 0 18003690.868 16498138.034 7330017.091 10 0 60422 63000.00000 0 18623064.059 16901787.277 4192256.220 10 0 60422 63900.00000 0 18991722.901 16983983.078 972937.951 10 0 60422 64800.00000 0 19064115.587 16779441.897 -2265308.581 10 0 60422 65700.00000 0 18804403.257 16332593.639 -5459492.991 10 0 60422 66600.00000 0 18188143.075 15695517.836 -8547496.057 10 0 60422 67500.00000 0 17203504.675 14925572.111 -11469283.873 10 0 60422 68400.00000 0 15851967.992 14082814.286 -14168079.339 10 0 60422 69300.00000 0 14148472.550 13227328.085 -16591467.607 10 0 60422 70200.00000 0 12121011.619 12416566.129 -18692413.748 10 0 60422 71100.00000 0 9809687.980 11702822.792 -20430172.948 10 0 60422 72000.00000 0 7265270.716 11130943.600 -21771075.937 10 0 60422 72900.00000 0 4547313.145 10736367.441 -22689175.073 10 0 60422 73800.00000 0 1721910.099 10543583.483 -23166739.433 10 0 60422 74700.00000 0 -1140812.456 10565067.029 -23194590.191 10 0 60422 75600.00000 0 -3969371.731 10800738.285 -22772270.721 10 0 60422 76500.00000 0 -6693656.116 11237966.037 -21908048.839 10 0 60422 77400.00000 0 -9247594.638 11852115.519 -20618751.704 10 0 60422 78300.00000 0 -11571658.283 12607617.089 -18929436.811 10 0 60422 79200.00000 0 -13615090.629 13459510.666 -16872905.482 10 0 60422 80100.00000 0 -15337776.431 14355401.107 -14489068.023 10 0 60422 81000.00000 0 -16711671.739 15237742.567 -11824172.460 10 0 60422 81900.00000 0 -17721737.246 16046356.098 -8929911.260 10 0 60422 82800.00000 0 -18366337.024 16721074.884 -5862422.875 10 0 60422 83700.00000 0 -18657086.981 17204405.964 -2681206.981 10 0 60422 84600.00000 0 -18618160.248 17444096.489 552025.937 10 0 60422 85500.00000 0 -18285079.273 17395496.253 3774548.536 10 0 60423 0.00000 0 -17703045.980 17023616.700 6923830.785 10 0 60423 900.00000 0 -16924880.223 16304798.837 9938752.505 10 0 60423 1800.00000 0 -16008654.391 15227919.584 12760786.471 10 0 60423 2700.00000 0 -15015122.882 13795084.138 15335134.712 10 0 60423 3600.00000 0 -14005055.468 12021774.426 17611791.719 10 0 60423 4500.00000 0 -13036586.629 9936445.932 19546515.602 10 0 60423 5400.00000 0 -12162692.442 7579588.320 21101688.204 10 0 60423 6300.00000 0 -11428901.222 5002287.606 22247047.536 10 0 60423 7200.00000 0 -10871334.241 2264348.462 22960278.447 10 0 60423 8100.00000 0 -10515159.041 -567946.502 23227450.047 10 0 60423 9000.00000 0 -10373520.525 -3424348.462 23043291.361 10 0 60423 9900.00000 0 -10446995.092 -6233321.654 22411299.601 10 0 60423 10800.00000 0 -10723591.089 -8924779.724 21343678.581 10 0 60423 11700.00000 0 -11179296.030 -11432766.034 19861107.960 10 0 60423 12600.00000 0 -11779147.930 -13697966.887 17992347.170 10 0 60423 13500.00000 0 -12478786.031 -15669953.384 15773681.084 10 0 60423 14400.00000 0 -13226415.781 -17309058.709 13248217.589 10 0 60423 15300.00000 0 -13965105.212 -18587812.644 10465050.298 10 0 60423 16200.00000 0 -14635315.576 -19491873.602 7478302.435 10 0 60423 17100.00000 0 -15177558.863 -20020419.547 4346070.523 10 0 60423 18000.00000 0 -15535069.173 -20185981.892 1129288.786 10 0 60423 18900.00000 0 -15656374.081 -20013730.189 -2109463.052 10 0 60423 19800.00000 0 -15497656.268 -19540238.653 -5307184.580 10 0 60423 20700.00000 0 -15024804.498 -18811787.635 -8401687.329 10 0 60423 21600.00000 0 -14215066.336 -17882272.896 -11332810.323 10 0 60423 22500.00000 0 -13058231.926 -16810812.067 -14043594.133 10 0 60423 23400.00000 0 -11557298.234 -15659150.374 -16481389.981 10 0 60423 24300.00000 0 -9728585.226 -14488975.881 -18598882.069 10 0 60423 25200.00000 0 -7601298.666 -13359257.940 -20355003.345 10 0 60423 26100.00000 0 -5216557.524 -12323721.144 -21715727.273 10 0 60423 27000.00000 0 -2625926.389 -11428560.868 -22654720.933 10 0 60423 27900.00000 0 110486.275 -10710495.876 -23153847.614 10 0 60423 28800.00000 0 2926285.181 -10195239.023 -23203510.075 10 0 60423 29700.00000 0 5751307.324 -9896449.249 -22802828.727 10 0 60423 30600.00000 0 8514299.239 -9815207.789 -21959652.030 10 0 60423 31500.00000 0 11145642.144 -9940039.615 -20690399.434 10 0 60423 32400.00000 0 13580012.909 -10247478.355 -19019740.191 10 0 60423 33300.00000 0 15758871.540 -10703150.331 -16980114.264 10 0 60423 34200.00000 0 17632672.972 -11263331.812 -14611104.402 10 0 60423 35100.00000 0 19162712.371 -11876913.836 -11958671.152 10 0 60423 36000.00000 0 20322528.212 -12487691.956 -9074265.128 10 0 60423 36900.00000 0 21098805.598 -13036884.609 -6013833.246 10 0 60423 37800.00000 0 21491742.951 -13465774.140 -2836737.716 10 0 60423 38700.00000 0 21514867.496 -13718359.216 395391.636 10 0 60423 39600.00000 0 21194307.804 -13743906.671 3619849.666 10 0 60423 40500.00000 0 20567554.398 -13499294.935 6774069.847 10 0 60423 41400.00000 0 19681760.744 -12951049.701 9796836.324 10 0 60423 42300.00000 0 18591656.276 -12076985.297 12629470.513 10 0 60423 43200.00000 0 17357159.236 -10867381.679 15216969.184 10 0 60423 44100.00000 0 16040789.759 -9325646.289 17509071.927 10 0 60423 45000.00000 0 14704991.878 -7468431.614 19461237.278 10 0 60423 45900.00000 0 13409476.911 -5325201.950 21035508.659 10 0 60423 46800.00000 0 12208699.706 -2937265.864 22201253.399 10 0 60423 47700.00000 0 11149573.580 -356313.191 22935760.590 10 0 60423 48600.00000 0 10269519.801 2357484.020 23224686.191 10 0 60423 49500.00000 0 9594933.367 5137728.899 23062336.672 10 0 60423 50400.00000 0 9140129.497 7914322.808 22451785.463 10 0 60423 51300.00000 0 8906815.074 10616150.111 21404819.593 10 0 60423 52200.00000 0 8884107.317 13173813.798 19941717.009 10 0 60423 53100.00000 0 9049098.999 15522308.645 18090858.328 10 0 60423 54000.00000 0 9367946.465 17603520.952 15888179.895 10 0 60423 54900.00000 0 9797434.583 19368450.792 13376478.186 10 0 60423 55800.00000 0 10286952.500 20779064.059 10604578.640 10 0 60423 56700.00000 0 10780796.397 21809696.939 7626384.840 10 0 60423 57600.00000 0 11220701.449 22447954.079 4499826.561 10 0 60423 58500.00000 0 11548495.107 22695063.056 1285727.491 10 0 60423 59400.00000 0 11708758.549 22565670.702 -1953384.752 10 0 60423 60300.00000 0 11651382.598 22087090.546 -5154502.368 10 0 60423 61200.00000 0 11333908.861 21298033.922 -8255370.147 10 0 60423 62100.00000 0 10723556.003 20246879.242 -11195702.361 10 0 60423 63000.00000 0 9798844.527 18989553.449 -13918359.323 10 0 60423 63900.00000 0 8550750.654 17587115.965 -16370460.122 10 0 60423 64800.00000 0 6983339.949 16103147.777 -18504409.612 10 0 60423 65700.00000 0 5113853.483 14601056.182 -20278819.770 10 0 60423 66600.00000 0 2972242.430 13141408.800 -21659307.846 10 0 60423 67500.00000 0 600170.202 11779408.816 -22619156.471 10 0 60423 68400.00000 0 -1950476.639 10562616.869 -23139823.781 10 0 60423 69300.00000 0 -4619507.023 9529014.374 -23211294.524 10 0 60423 70200.00000 0 -7340694.256 8705488.317 -22832266.303 10 0 60423 71100.00000 0 -10044301.525 8106799.766 -22010168.066 10 0 60423 72000.00000 0 -12659759.871 7735078.031 -20761011.067 10 0 60423 72900.00000 0 -15118388.366 7579860.422 -19109075.472 10 0 60423 73800.00000 0 -17356044.536 7618674.873 -17086438.716 10 0 60423 74700.00000 0 -19315595.886 7818140.148 -14732354.535 10 0 60423 75600.00000 0 -20949110.766 8135536.781 -12092494.328 10 0 60423 76500.00000 0 -22219678.284 8520782.342 -9218065.022 10 0 60423 77400.00000 0 -23102782.206 8918727.669 -6164820.058 10 0 60423 78300.00000 0 -23587172.172 9271677.249 -2991982.164 10 0 60423 79200.00000 0 -23675196.364 9522027.391 238901.573 10 0 60423 80100.00000 0 -23382582.103 9614910.800 3465150.366 10 0 60423 81000.00000 0 -22737673.878 9500735.682 6624163.155 10 0 60423 81900.00000 0 -21780160.947 9137511.838 9654631.307 10 0 60423 82800.00000 0 -20559347.992 8492864.969 12497726.994 10 0 60423 83700.00000 0 -19132041.446 7545653.433 15098244.157 10 0 60423 84600.00000 0 -17560140.141 6287118.256 17405669.890 10 0 60423 85500.00000 0 -15908031.279 4721516.702 19375165.466 10 0 60424 0.00000 0 -14239900.935 2866211.499 20968437.888 10 0 60424 900.00000 0 -12617070.756 751209.249 22154485.975 10 0 60424 1800.00000 0 -11095474.459 -1581831.799 22910204.494 10 0 60424 2700.00000 0 -9723376.644 -4081088.161 23220837.500 10 0 60424 3600.00000 0 -8539431.427 -6686488.928 23080269.809 10 0 60424 4500.00000 0 -7571161.113 -9331987.384 22491151.611 10 0 60424 5400.00000 0 -6833918.586 -11948092.905 21464853.320 10 0 60424 6300.00000 0 -6330376.721 -14464558.680 20021250.991 10 0 60424 7200.00000 0 -6050566.061 -16813113.939 18188345.877 10 0 60424 8100.00000 0 -5972458.934 -18930127.218 16001724.899 10 0 60424 9000.00000 0 -6063075.164 -20759089.745 13503871.886 10 0 60424 9900.00000 0 -6280062.395 -22252815.137 10743342.561 10 0 60424 10800.00000 0 -6573683.841 -23375263.335 7773819.038 10 0 60424 11700.00000 0 -6889128.819 -24102912.219 4653062.271 10 0 60424 12600.00000 0 -7169047.512 -24425619.338 1441783.116 10 0 60424 13500.00000 0 -7356201.714 -24346937.677 -1797545.402 10 0 60424 14400.00000 0 -7396118.236 -23883872.528 -5001910.787 10 0 60424 15300.00000 0 -7239631.467 -23066090.241 -8108993.949 10 0 60424 16200.00000 0 -6845206.367 -21934612.947 -11058387.410 10 0 60424 17100.00000 0 -6180942.554 -20540055.076 -13792774.330 10 0 60424 18000.00000 0 -5226173.921 -18940476.856 -16259044.779 10 0 60424 18900.00000 0 -3972595.490 -17198945.930 -18409327.301 10 0 60424 19800.00000 0 -2424869.423 -15380910.256 -20201915.735 10 0 60424 20700.00000 0 -600684.174 -13551492.984 -21602073.637 10 0 60424 21600.00000 0 1469736.128 -11772822.806 -22582701.320 10 0 60424 22500.00000 0 3744652.018 -10101511.243 -23124853.430 10 0 60424 23400.00000 0 6172316.557 -8586381.758 -23218097.894 10 0 60424 24300.00000 0 8692908.423 -7266544.604 -22860710.205 10 0 60424 25200.00000 0 11240810.386 -6169896.570 -22059700.055 10 0 60424 26100.00000 0 13747139.093 -5312106.931 -20830670.324 10 0 60424 27000.00000 0 16142421.848 -4696130.505 -19197511.504 10 0 60424 27900.00000 0 18359309.975 -4312266.791 -17191937.495 10 0 60424 28800.00000 0 20335216.822 -4138761.501 -14852871.577 10 0 60424 29700.00000 0 22014771.483 -4142924.191 -12225694.094 10 0 60424 30600.00000 0 23351986.818 -4282714.311 -9361365.914 10 0 60424 31500.00000 0 24312052.018 -4508728.410 -6315444.181 10 0 60424 32400.00000 0 24872675.401 -4766504.452 -3147008.930 10 0 60424 33300.00000 0 25024921.677 -4999045.871 82479.001 10 0 60424 34200.00000 0 24773508.903 -5149458.673 3310366.859 10 0 60424 35100.00000 0 24136552.762 -5163590.031 6474022.758 10 0 60424 36000.00000 0 23144768.908 -4992556.632 9512048.888 10 0 60424 36900.00000 0 21840166.721 -4595055.535 12365471.553 10 0 60424 37800.00000 0 20274289.075 -3939359.351 14978884.919 10 0 60424 38700.00000 0 18506071.711 -3004910.699 17301526.262 10 0 60424 39600.00000 0 16599411.658 -1783447.637 19288261.838 10 0 60424 40500.00000 0 14620546.261 -279611.393 20900464.306 10 0 60424 41400.00000 0 12635352.188 1488990.681 22106764.776 10 0 60424 42300.00000 0 10706677.093 3492271.223 22883664.935 10 0 60424 43200.00000 0 8891815.142 5688679.417 23215997.416 10 0 60424 44100.00000 0 7240231.543 8026707.206 23097225.400 10 0 60424 45000.00000 0 5791630.882 10446823.804 22529575.404 10 0 60424 45900.00000 0 4574449.631 12883759.200 21524000.350 10 0 60424 46800.00000 0 3604835.542 15269042.536 20099973.096 10 0 60424 47700.00000 0 2886156.295 17533690.266 18285113.861 10 0 60424 48600.00000 0 2409057.565 19610932.446 16114658.140 10 0 60424 49500.00000 0 2152067.590 21438863.493 13630774.835 10 0 60424 50400.00000 0 2082722.225 22962906.526 10881747.443 10 0 60424 51300.00000 0 2159162.394 24137987.904 7921033.916 10 0 60424 52200.00000 0 2332135.685 24930330.525 4806223.544 10 0 60424 53100.00000 0 2547316.588 25318790.293 1597911.422 10 0 60424 54000.00000 0 2747846.093 25295679.439 -1641486.992 10 0 60424 54900.00000 0 2876982.032 24867042.044 -4848957.426 10 0 60424 55800.00000 0 2880746.698 24052370.408 -7962119.713 10 0 60424 56700.00000 0 2710458.476 22883774.601 -10920447.237 10 0 60424 57600.00000 0 2325039.243 21404640.787 -13666448.340 10 0 60424 58500.00000 0 1692999.016 19667835.456 -16146786.120 10 0 60424 59400.00000 0 794013.229 17733531.787 -18313314.542 10 0 60424 60300.00000 0 -379974.530 15666750.013 -20124010.733 10 0 60424 61200.00000 0 -1824171.242 13534715.368 -21543785.688 10 0 60424 62100.00000 0 -3520899.482 11404144.405 -22545158.260 10 0 60424 63000.00000 0 -5440110.629 9338572.939 -23108780.184 10 0 60424 63900.00000 0 -7540425.154 7395836.685 -23223802.844 10 0 60424 64800.00000 0 -9770657.021 5625808.817 -22888079.587 10 0 60424 65700.00000 0 -12071759.154 4068487.552 -22108200.444 10 0 60424 66600.00000 0 -14379109.561 2752512.121 -20899359.143 10 0 60424 67500.00000 0 -16625043.630 1694167.425 -19285055.350 10 0 60424 68400.00000 0 -18741527.990 896917.360 -17296637.925 10 0 60424 69300.00000 0 -20662865.375 351484.820 -14972697.901 10 0 60424 70200.00000 0 -22328318.555 36473.670 -12358322.560 10 0 60424 71100.00000 0 -23684544.639 -80494.502 -9504224.559 10 0 60424 72000.00000 0 -24687738.661 -41177.463 -6465762.503 10 0 60424 72900.00000 0 -25305397.288 105288.687 -3301871.449 10 0 60424 73800.00000 0 -25517629.142 304703.869 -73923.669 10 0 60424 74700.00000 0 -25317956.897 500333.814 3155458.466 10 0 60424 75600.00000 0 -24713577.501 635548.198 6323614.630 10 0 60424 76500.00000 0 -23725069.399 656455.452 9369060.242 10 0 60424 77400.00000 0 -22385558.706 514422.587 12232678.146 10 0 60424 78300.00000 0 -20739378.920 168373.114 14858865.097 10 0 60424 79200.00000 0 -18840279.887 -413234.589 17196610.800 10 0 60424 80100.00000 0 -16749260.559 -1250832.774 19200488.562 10 0 60424 81000.00000 0 -14532115.746 -2352641.113 20831538.369 10 0 60424 81900.00000 0 -12256798.927 -3714082.483 22058025.383 10 0 60424 82800.00000 0 -9990710.818 -5317743.791 22856059.165 10 0 60424 83700.00000 0 -7798026.412 -7133885.049 23210061.658 10 0 60424 84600.00000 0 -5737171.534 -9121477.071 23113074.777 10 0 60424 85500.00000 0 -3858553.758 -11229725.919 22566901.391 10 0 60425 0.00000 0 -2202642.073 -13400021.655 21582076.750 10 0 60425 900.00000 0 -798474.136 -15568232.379 20177669.768 10 0 60425 1800.00000 0 337344.776 -17667245.692 18380918.863 10 0 60425 2700.00000 0 1201112.703 -19629655.875 16226707.010 10 0 60425 3600.00000 0 1801950.439 -21390481.770 13756886.855 10 0 60425 4500.00000 0 2161174.437 -22889802.709 11019468.094 10 0 60425 5400.00000 0 2311150.220 -24075201.566 8067682.741 10 0 60425 6300.00000 0 2293675.549 -24903912.030 4958946.451 10 0 60425 7200.00000 0 2157962.642 -25344579.357 1753736.426 10 0 60425 8100.00000 0 1958305.889 -25378560.179 -1485591.715 10 0 60425 9000.00000 0 1751534.967 -25000706.299 -4696024.318 10 0 60425 9900.00000 0 1594362.455 -24219599.380 -7815122.661 10 0 60425 10800.00000 0 1540739.472 -23057226.687 -10782243.594 10 0 60425 11700.00000 0 1639332.399 -21548111.852 -13539723.329 10 0 60425 12600.00000 0 1931228.438 -19737937.616 -16034000.694 10 0 60425 13500.00000 0 2447967.762 -17681718.993 -18216657.702 10 0 60425 14400.00000 0 3209985.931 -15441603.956 -20045357.250 10 0 60425 15300.00000 0 4225532.656 -13084394.224 -21484660.008 10 0 60425 16200.00000 0 5490112.736 -10678890.013 -22506705.267 10 0 60425 17100.00000 0 6986472.894 -8293169.526 -23091743.368 10 0 60425 18000.00000 0 8685135.318 -5991916.245 -23228510.258 10 0 60425 18900.00000 0 10545455.907 -3833904.579 -22914437.829 10 0 60425 19800.00000 0 12517163.378 -1869747.441 -22155696.753 10 0 60425 20700.00000 0 14542315.482 -139998.186 -20967071.535 10 0 60425 21600.00000 0 16557591.308 1326315.638 -19371670.577 10 0 60425 22500.00000 0 18496824.753 2512667.277 -17400476.906 10 0 60425 23400.00000 0 20293674.167 3415475.415 -15091748.125 10 0 60425 24300.00000 0 21884317.444 4044001.471 -12490276.854 10 0 60425 25200.00000 0 23210060.647 4419705.182 -9646525.523 10 0 60425 26100.00000 0 24219751.611 4575086.639 -6615651.761 10 0 60425 27000.00000 0 24871897.887 4552064.311 -3456442.835 10 0 60425 27900.00000 0 25136400.504 4399957.979 -230179.340 10 0 60425 28800.00000 0 24995830.865 4173162.068 3000550.047 10 0 60425 29700.00000 0 24446197.002 3928607.860 6173059.944 10 0 60425 30600.00000 0 23497166.689 3723122.026 9225782.360 10 0 60425 31500.00000 0 22171737.519 3610793.319 12099459.893 10 0 60425 32400.00000 0 20505367.191 3640458.991 14738294.887 10 0 60425 33300.00000 0 18544599.707 3853417.519 17091032.205 10 0 60425 34200.00000 0 16345244.329 4281464.794 19111954.605 10 0 60425 35100.00000 0 13970182.719 4945337.346 20761771.472 10 0 60425 36000.00000 0 11486895.131 5853629.190 22008383.721 10 0 60425 36900.00000 0 8964808.281 7002229.045 22827510.105 10 0 60425 37800.00000 0 6472574.818 8374302.917 23203162.775 10 0 60425 38700.00000 0 4075397.179 9940824.230 23127962.820 10 0 60425 39600.00000 0 1832506.768 11661630.773 22603289.428 10 0 60425 40500.00000 0 -205097.019 13486965.568 21639259.435 10 0 60425 41400.00000 0 -1996554.215 15359438.433 20254537.151 10 0 60425 42300.00000 0 -3512619.051 17216327.112 18475977.569 10 0 60425 43200.00000 0 -4736641.013 18992122.319 16338109.263 10 0 60425 44100.00000 0 -5665011.759 20621210.474 13882466.389 10 0 60425 45000.00000 0 -6307059.853 22040581.658 11156782.347 10 0 60425 45900.00000 0 -6684398.543 23192448.896 8214060.504 10 0 60425 46800.00000 0 -6829755.012 24026668.258 5111540.031 10 0 60425 47700.00000 0 -6785331.507 24502857.379 1909577.286 10 0 60425 48600.00000 0 -6600768.752 24592122.576 -1329534.946 10 0 60425 49500.00000 0 -6330799.028 24278321.265 -4542786.618 10 0 60425 50400.00000 0 -6032689.516 23558806.034 -7667683.358 10 0 60425 51300.00000 0 -5763585.393 22444618.787 -10643468.248 10 0 60425 52200.00000 0 -5577866.312 20960126.726 -13412307.914 10 0 60425 53100.00000 0 -5524629.122 19142115.642 -15920419.190 10 0 60425 54000.00000 0 -5645404.030 17038378.846 -18119114.120 10 0 60425 54900.00000 0 -5972201.253 14705861.243 -19965743.032 10 0 60425 55800.00000 0 -6525970.872 12208436.555 -21424517.612 10 0 60425 56700.00000 0 -7315540.965 9614410.746 -22467198.618 10 0 60425 57600.00000 0 -8337078.725 6993855.744 -23073635.698 10 0 60425 58500.00000 0 -9574097.233 4415884.236 -23232149.725 10 0 60425 59400.00000 0 -10998007.680 1945978.289 -22939751.137 10 0 60425 60300.00000 0 -12569194.039 -356518.099 -22202190.854 10 0 60425 61200.00000 0 -14238565.539 -2440639.502 -21033843.363 10 0 60425 62100.00000 0 -15949522.405 -4265680.941 -19457424.604 10 0 60425 63000.00000 0 -17640253.248 -5802644.448 -17503550.194 10 0 60425 63900.00000 0 -19246268.644 -7035191.709 -15210142.413 10 0 60425 64800.00000 0 -20703065.576 -7960064.636 -12621697.084 10 0 60425 65700.00000 0 -21948811.849 -8586957.810 -9788424.085 10 0 60425 66600.00000 0 -22926938.536 -8937849.395 -6765277.641 10 0 60425 67500.00000 0 -23588532.132 -9045819.678 -3610894.728 10 0 60425 68400.00000 0 -23894426.266 -8953407.712 -386461.723 10 0 60425 69300.00000 0 -23816905.075 -8710575.866 2845468.957 10 0 60425 70200.00000 0 -23340946.486 -8372368.519 6022189.466 10 0 60425 71100.00000 0 -22464952.674 -7996363.963 9082050.983 10 0 60425 72000.00000 0 -21200936.405 -7640027.366 11965658.420 10 0 60425 72900.00000 0 -19574154.606 -7358076.765 14617022.164 10 0 60425 73800.00000 0 -17622203.631 -7199973.590 16984644.529 10 0 60425 74700.00000 0 -15393613.134 -7207643.987 19022519.778 10 0 60425 75600.00000 0 -12945996.382 -7413527.563 20691028.416 10 0 60425 76500.00000 0 -10343833.286 -7839036.426 21957708.463 10 0 60425 77400.00000 0 -7655977.738 -8493490.247 22797888.794 10 0 60425 78300.00000 0 -4952992.292 -9373573.155 23195172.282 10 0 60425 79200.00000 0 -2304420.372 -10463336.410 23141759.313 10 0 60425 80100.00000 0 223891.113 -11734747.992 22638605.153 10 0 60425 81000.00000 0 2572307.920 -13148767.272 21695407.775 10 0 60425 81900.00000 0 4689659.230 -14656900.841 20330425.883 10 0 60425 82800.00000 0 6535129.677 -16203175.230 18570130.059 10 0 60425 83700.00000 0 8079714.261 -17726444.498 16448693.176 10 0 60425 84600.00000 0 9307175.915 -19162936.267 14007329.383 10 0 60425 85500.00000 0 10214466.245 -20448929.377 11293494.043 99